カタログに戻る

CZ-3C DEB

運用中GTO
NORAD 40870·DEBRIS·🇨🇳 China

打ち上げ Feb 24, 2012 から Xichang Satellite Launch Center

Loading…

TLE

経年Source: Space-Track

元期: Sep 14, 2026, 19:45 UTC

1 40870U 12008AL  26257.82329987  .00000718  00000-0  11751-1 0  9992
2 40870  16.9111 148.9683 7314297  65.1631 351.5071  2.05396548  2011

AllMySatでCZ-3C DEBをリアルタイム追跡

Download on the App Store